EW4365 Weather Reports


time (UTC)temp
C
wind
direction
speed
KPH
gust
KPH
rain 1hr
cm
rain 24hr
cm
rain mn
cm
humidity
%
barometer
mb
20260508184531 17 251 3.2 14.5 0.00 0.00 0.00 55 1010.6
20260508183023 17 290 4.8 16.1 0.00 0.00 0.00 54 1010.8
20260508181527 17 182 4.8 14.5 0.00 0.00 0.00 57 1011.0
20260508180017 17 299 6.4 12.9 0.00 0.00 0.00 57 1011.4
20260508174512 16 322 4.8 12.9 0.00 0.00 0.00 56 1012.0
20260508173017 16 323 3.2 14.5 0.00 0.00 0.00 60 1012.3
20260508171508 16 281 4.8 12.9 0.00 0.00 0.00 57 1012.7
20260508170004 15 299 8.0 14.5 0.00 0.00 0.00 59 1013.2
20260508164503 15 294 6.4 14.5 0.00 0.00 0.00 59 1013.3
20260508163106 15 228 6.4 14.5 0.00 0.00 0.00 62 1013.2
20260508161607 14 227 4.8 17.7 0.00 0.00 0.00 61 1013.3
20260508160056 13 309 6.4 17.7 0.00 0.00 0.00 64 1013.5
20260508154557 13 296 4.8 14.5 0.00 0.00 0.00 65 1013.6
20260508153052 12 331 1.6 11.3 0.00 0.00 0.00 69 1013.6
20260508151541 11 253 4.8 11.3 0.00 0.00 0.00 68 1013.6
20260508150039 11 242 1.6 8.0 0.00 0.00 0.00 68 1013.8
20260508144537 11 246 3.2 12.9 0.00 0.00 0.00 68 1013.9
20260508143035 11 246 1.6 8.0 0.00 0.00 0.00 68 1013.8
20260508141529 11 270 4.8 12.9 0.00 0.00 0.00 67 1013.8
20260508140028 11 274 0.0 6.4 0.00 0.00 0.00 70 1014.0
20260508134522 10 277 0.0 12.9 0.00 0.00 0.00 69 1014.0
20260508133021 10 267 3.2 9.7 0.00 0.00 0.00 69 1013.9
20260508131520 10 267 3.2 11.3 0.00 0.00 0.00 69 1013.9
20260508130024 10 275 3.2 9.7 0.00 0.00 0.00 70 1013.8
20260508124516 10 258 1.6 9.7 0.00 0.00 0.00 72 1013.9
20260508123014 10 300 1.6 8.0 0.00 0.00 0.00 72 1013.8
20260508121511 8 267 1.6 12.9 0.00 0.00 0.00 73 1013.7
20260508120010 8 313 3.2 12.9 0.00 0.00 0.00 72 1013.6
20260508114511 8 256 3.2 12.9 0.00 0.00 0.00 73 1013.5
20260508113013 8 265 1.6 9.7 0.00 0.00 0.00 73 1013.3
20260508111511 7 221 3.2 11.3 0.00 0.00 0.00 75 1013.3
20260508110007 7 306 1.6 12.9 0.00 0.00 0.00 76 1013.3
20260508104507 6 261 1.6 8.0 0.00 0.00 0.00 77 1013.3
20260508103015 6 246 0.0 8.0 0.00 0.00 0.00 77 1013.2
20260508101506 6 279 1.6 8.0 0.00 0.00 0.00 78 1013.0
20260508100006 6 282 3.2 6.4 0.00 0.00 0.00 80 1013.0
20260508094503 6 292 1.6 4.8 0.00 0.00 0.00 83 1013.0
20260508093002 5 298 0.0 3.2 0.00 0.00 0.00 86 1013.0
20260508091604 5 298 0.0 3.2 0.00 0.00 0.00 88 1013.2
20260508090059 5 298 1.6 3.2 0.00 0.00 0.00 90 1013.3
20260508084555 5 298 0.0 3.2 0.00 0.00 0.00 89 1013.4
20260508083056 5 360 0.0 3.2 0.00 0.00 0.00 87 1013.3
20260508081603 6 298 0.0 3.2 0.00 0.00 0.00 85 1013.4
20260508080045 6 298 0.0 3.2 0.00 0.00 0.00 83 1013.2
20260508074543 7 298 0.0 1.6 0.00 0.00 0.00 82 1013.2
20260508073041 7 298 0.0 1.6 0.00 0.00 0.00 80 1013.3
20260508071539 7 296 1.6 4.8 0.00 0.00 0.00 81 1013.4
20260508070036 8 300 0.0 3.2 0.00 0.00 0.00 82 1013.6
20260508064536 7 300 0.0 3.2 0.00 0.00 0.00 83 1013.5
20260508063032 8 300 0.0 3.2 0.00 0.00 0.00 81 1013.7
20260508061532 8 300 0.0 3.2 0.00 0.00 0.00 77 1014.0
20260508060030 8 300 0.0 4.8 0.00 0.00 0.00 77 1014.4
20260508054533 8 234 6.4 14.5 0.00 0.00 0.00 76 1014.7
20260508053031 9 315 3.2 14.5 0.00 0.00 0.00 75 1014.9
20260508051530 8 307 0.0 0.0 0.00 0.00 0.00 74 1014.3
20260508050025 8 308 0.0 0.0 0.00 0.00 0.00 77 1013.9
20260508044520 8 308 0.0 0.0 0.00 0.00 0.00 74 1013.9
20260508043019 8 308 0.0 0.0 0.00 0.00 0.00 77 1013.9
20260508041516 8 308 0.0 0.0 0.00 0.00 0.00 79 1014.1
20260508040015 8 308 0.0 0.0 0.00 0.00 0.00 79 1014.1
20260508034513 8 308 0.0 0.0 0.00 0.00 0.00 75 1014.1
20260508033013 8 308 0.0 0.0 0.00 0.00 0.00 73 1014.1
20260508031512 8 308 0.0 1.6 0.00 0.00 0.00 73 1014.2
20260508030012 9 308 0.0 0.0 0.00 0.00 0.00 71 1014.3
20260508024512 9 308 0.0 0.0 0.00 0.00 0.00 67 1014.2
20260508023014 9 308 0.0 1.6 0.00 0.00 0.00 67 1014.0
20260508021510 10 308 0.0 1.6 0.00 0.00 0.00 65 1014.0
20260508020010 10 308 0.0 1.6 0.00 0.00 0.00 65 1013.9
20260508014510 10 308 1.6 6.4 0.00 0.00 0.00 60 1013.9
20260508013008 10 280 0.0 0.0 0.00 0.00 0.00 64 1014.1
20260508010009 10 280 0.0 9.7 0.00 0.00 0.00 58 1013.7
20260508004508 10 350 0.0 3.2 0.00 0.00 0.00 67 1013.8
20260508003006 10 350 0.0 0.0 0.00 0.00 0.00 62 1013.7
20260508001505 10 350 0.0 0.0 0.00 0.00 0.00 58 1013.6
20260508000008 11 350 0.0 0.0 0.00 0.00 0.00 56 1013.4
20260507234515 11 350 0.0 1.6 0.00 0.00 0.00 56 1013.3
20260507233004 12 350 1.6 6.4 0.00 0.00 0.00 48 1013.3
20260507231503 12 355 3.2 6.4 0.00 0.00 0.00 46 1013.3
20260507230003 13 355 0.0 8.0 0.00 0.00 0.00 47 1013.3
20260507224506 13 355 8.0 16.1 0.00 0.00 0.00 45 1013.4
20260507223002 12 306 6.4 17.7 0.00 0.00 0.00 46 1013.5
20260507221600 13 309 8.0 17.7 0.00 0.00 0.00 46 1013.6
20260507220059 13 324 8.0 17.7 0.00 0.00 0.00 44 1013.6
20260507214601 13 327 6.4 19.3 0.00 0.00 0.00 44 1013.4
20260507213103 13 327 4.8 19.3 0.00 0.00 0.00 48 1013.4
20260507211556 13 345 11.3 24.1 0.00 0.00 0.00 45 1013.4
20260507210054 13 339 11.3 29.0 0.00 0.00 0.00 49 1013.3
20260507204557 12 347 8.0 22.5 0.00 0.00 0.00 47 1013.4
20260507203101 12 342 6.4 19.3 0.00 0.00 0.00 48 1013.3
20260507201552 12 5 6.4 19.3 0.00 0.00 0.00 48 1013.3
20260507200052 12 360 17.7 25.7 0.00 0.00 0.00 48 1013.6
20260507194550 12 5 16.1 25.7 0.00 0.00 0.00 54 1013.4
20260507193054 13 344 9.7 25.7 0.00 0.00 0.00 51 1013.7
20260507191546 12 355 12.9 27.4 0.00 0.00 0.00 52 1013.7
20260507190045 12 15 11.3 22.5 0.00 0.00 0.00 51 1013.8